Weather History for Jefferson, GA

Change the Weather History Date:

Thursday, October 18, 2012

  Actual Average (KGVL) Record (KGVL)
Temperature  
Mean Temperature 60 °F 61 °F  
Max Temperature 69 °F 71 °F 85 °F (1938)
Min Temperature 50 °F 51 °F 32 °F (1943)
Degree Days  
Heating Degree Days 6 5  
Month to date heating degree days 59  
Since 1 July heating degree days 72  
Cooling Degree Days 0 1  
Month to date cooling degree days 31  
Year to date cooling degree days 1572  
Growing Degree Days 10 (Base 50)    
Moisture  
Dew Point 53 °F    
Average Humidity 82    
Maximum Humidity 100    
Minimum Humidity 51    
Precipitation  
Precipitation 0.00 in 0.13 in 0.94 in (1967)
Month to date precipitation 2.62  
Year to date precipitation 43.55  
Sea Level Pressure  
Sea Level Pressure 29.84 in    
Wind  
Wind Speed 1 mph ()    
Max Wind Speed 7 mph    
Max Gust Speed -    
Visibility 7.5 miles    
Events Fog , Rain    
T = Trace of Precipitation, MM = Missing Value Source: Averaged Metar Reports

Daily Weather History Graph

Daily Weather History Graph

Search for Another Location

Airport:

Trip Planner

Search our weather history database for the weather conditions in past years. The results will help you decide how hot, cold, wet, or windy it might be!

Date:

Astronomy

Oct. 18, 2012 Rise Set
Actual Time 7:42 AM EDT 6:55 PM EDT
Civil Twilight 7:16 AM EDT 7:21 PM EDT
Nautical Twilight 6:47 AM EDT 7:50 PM EDT
Astronomical Twilight 6:18 AM EDT 8:19 PM EDT
Moon 11:13 AM EDT (10/18) 9:38 PM EDT (10/18)
Length of Visible Light 12h 04m
Length of Day
11h 13m
Waxing Crescent, 14% of the Moon is Illuminated
Oct 18
Waxing Crescent
Oct 21
First Quarter
Oct 29
Full
Nov 6
Last Quarter
Nov 13
New

Hourly Weather History & Observations

Time (EDT) Temp. Dew Point Humidity Pressure Visibility Wind Dir Wind Speed Gust Speed Precip Events Conditions
12:15 AM 55.4 °F 39.2 °F 54% 29.86 in 10.0 mi SE 4.6 mph - N/A   Clear
12:35 AM 53.6 °F 37.4 °F 54% 29.86 in 10.0 mi Calm Calm - N/A   Clear
12:55 AM 55.4 °F 37.4 °F 51% 29.86 in 10.0 mi Calm Calm - N/A   Clear
1:15 AM 53.6 °F 37.4 °F 54% 29.85 in 10.0 mi SE 3.5 mph - N/A   Clear
1:35 AM 53.6 °F 39.2 °F 58% 29.86 in 10.0 mi Calm Calm - N/A   Clear
1:55 AM 53.6 °F 41.0 °F 62% 29.86 in 10.0 mi Calm Calm - N/A   Clear
2:15 AM 53.6 °F 41.0 °F 62% 29.87 in 10.0 mi Calm Calm - N/A   Clear
2:35 AM 51.8 °F 41.0 °F 67% 29.87 in 10.0 mi Calm Calm - N/A   Clear
2:55 AM 51.8 °F 44.6 °F 76% 29.87 in 10.0 mi Calm Calm - N/A   Clear
3:15 AM 50.0 °F 46.4 °F 87% 29.86 in 10.0 mi Calm Calm - N/A   Clear
3:35 AM 50.0 °F 46.4 °F 87% 29.87 in 10.0 mi Calm Calm - N/A   Clear
3:55 AM 50.0 °F 46.4 °F 87% 29.87 in 10.0 mi Calm Calm - N/A   Clear
4:15 AM 51.8 °F 48.2 °F 88% 29.87 in 10.0 mi Calm Calm - N/A   Mostly Cloudy
4:35 AM 51.8 °F 48.2 °F 88% 29.86 in 10.0 mi Calm Calm - N/A   Overcast
4:55 AM 53.6 °F 50.0 °F 88% 29.86 in 10.0 mi ESE 4.6 mph - N/A   Overcast
5:15 AM 55.4 °F 51.8 °F 88% 29.85 in 10.0 mi ESE 3.5 mph - N/A   Overcast
5:35 AM 55.4 °F 51.8 °F 88% 29.84 in 10.0 mi Calm Calm - N/A   Overcast
5:55 AM 53.6 °F 50.0 °F 88% 29.86 in 10.0 mi Calm Calm - N/A   Overcast
6:15 AM 53.6 °F 50.0 °F 88% 29.87 in 10.0 mi Calm Calm - N/A   Overcast
6:35 AM 53.6 °F 50.0 °F 88% 29.91 in 10.0 mi Calm Calm - N/A   Overcast
6:55 AM 53.6 °F 50.0 °F 88% 29.89 in 10.0 mi Calm Calm - N/A Rain Rain
7:15 AM 53.6 °F 50.0 °F 88% 29.88 in 7.0 mi Calm Calm - N/A Rain Light Rain
7:35 AM 53.6 °F 51.8 °F 94% 29.85 in 7.0 mi East 4.6 mph - N/A   Overcast
7:55 AM 53.6 °F 51.8 °F 94% 29.85 in 7.0 mi ESE 5.8 mph - N/A   Overcast
8:15 AM 53.6 °F 51.8 °F 94% 29.84 in 4.0 mi Calm Calm - N/A   Overcast
8:35 AM 55.4 °F 53.6 °F 94% 29.83 in 4.0 mi Calm Calm - N/A   Overcast
8:55 AM 55.4 °F 53.6 °F 94% 29.84 in 4.0 mi Calm Calm - N/A   Overcast
9:15 AM 55.4 °F 53.6 °F 94% 29.85 in 3.0 mi Calm Calm - N/A   Overcast
9:35 AM 55.4 °F 55.4 °F 100% 29.86 in 3.0 mi Calm Calm - N/A   Overcast
9:55 AM 55.4 °F 53.6 °F 94% 29.86 in 2.5 mi Calm Calm - N/A   Overcast
10:15 AM 55.4 °F 55.4 °F 100% 29.87 in 2.5 mi Calm Calm - N/A   Overcast
10:35 AM 55.4 °F 55.4 °F 100% 29.87 in 3.0 mi Calm Calm - N/A   Overcast
10:55 AM 55.4 °F 55.4 °F 100% 29.88 in 2.5 mi Calm Calm - N/A   Overcast
11:15 AM 57.2 °F 55.4 °F 94% 29.87 in 1.2 mi Calm Calm - N/A   Overcast
11:35 AM 57.2 °F 55.4 °F 94% 29.87 in 1.0 mi Calm Calm - N/A   Overcast
11:55 AM 59.0 °F 55.4 °F 88% 29.86 in 0.8 mi Calm Calm - N/A   Overcast
12:15 PM 59.0 °F 57.2 °F 94% 29.86 in 0.5 mi Calm Calm - N/A Fog Fog
12:35 PM 59.0 °F 57.2 °F 94% 29.86 in 1.2 mi Calm Calm - N/A   Overcast
12:55 PM 60.8 °F 59.0 °F 94% 29.86 in 3.0 mi Calm Calm - N/A   Overcast
1:15 PM 60.8 °F 59.0 °F 94% 29.85 in 3.0 mi Calm Calm - N/A   Overcast
1:35 PM 60.8 °F 59.0 °F 94% 29.84 in 4.0 mi ESE 3.5 mph - N/A   Overcast
1:55 PM 64.4 °F 59.0 °F 83% 29.82 in 5.0 mi SSE 3.5 mph - N/A   Haze
2:15 PM 68.0 °F 55.4 °F 64% 29.81 in 10.0 mi Calm Calm - N/A   Overcast
2:35 PM 68.0 °F 53.6 °F 60% 29.81 in 10.0 mi SW 6.9 mph - N/A   Overcast
2:55 PM 66.2 °F 53.6 °F 64% 29.81 in 10.0 mi South 3.5 mph - N/A   Overcast
3:15 PM 66.2 °F 53.6 °F 64% 29.81 in 10.0 mi Calm Calm - N/A   Overcast
3:35 PM 68.0 °F 53.6 °F 60% 29.81 in 10.0 mi Calm Calm - N/A   Overcast
3:55 PM 68.0 °F 53.6 °F 60% 29.81 in 10.0 mi Calm Calm - N/A   Overcast
4:15 PM 68.0 °F 53.6 °F 60% 29.81 in 10.0 mi Calm Calm - N/A   Overcast
4:35 PM 69.8 °F 53.6 °F 56% 29.81 in 10.0 mi West 4.6 mph - N/A   Overcast
4:55 PM 68.0 °F 53.6 °F 60% 29.80 in 10.0 mi Calm Calm - N/A   Mostly Cloudy
5:15 PM 69.8 °F 53.6 °F 56% 29.80 in 10.0 mi Calm Calm - N/A   Mostly Cloudy
5:35 PM 69.8 °F 53.6 °F 56% 29.80 in 10.0 mi Calm Calm - N/A   Mostly Cloudy
5:55 PM 69.8 °F 53.6 °F 56% 29.80 in 10.0 mi Calm Calm - N/A   Scattered Clouds
6:15 PM 68.0 °F 55.4 °F 64% 29.80 in 10.0 mi Calm Calm - N/A   Scattered Clouds
6:35 PM 66.2 °F 60.8 °F 83% 29.80 in 10.0 mi Calm Calm - N/A   Clear
6:55 PM 64.4 °F 60.8 °F 88% 29.80 in 10.0 mi Calm Calm - N/A   Clear
7:15 PM 62.6 °F 60.8 °F 94% 29.81 in 10.0 mi Calm Calm - N/A   Clear
7:35 PM 62.6 °F 60.8 °F 94% 29.81 in 7.0 mi Calm Calm - N/A   Scattered Clouds
7:55 PM 62.6 °F 60.8 °F 94% 29.81 in 7.0 mi Calm Calm - N/A   Scattered Clouds
8:15 PM 62.6 °F 60.8 °F 94% 29.81 in 7.0 mi Calm Calm - N/A   Scattered Clouds
8:35 PM 62.6 °F 60.8 °F 94% 29.81 in 5.0 mi Calm Calm - N/A   Scattered Clouds
8:55 PM 60.8 °F 59.0 °F 94% 29.81 in 3.0 mi Calm Calm - N/A   Clear
9:15 PM 60.8 °F 59.0 °F 94% 29.81 in 5.0 mi Calm Calm - N/A   Clear
9:35 PM 60.8 °F 59.0 °F 94% 29.81 in 5.0 mi Calm Calm - N/A   Clear
9:55 PM 60.8 °F 60.8 °F 100% 29.81 in 5.0 mi Calm Calm - N/A   Scattered Clouds
10:15 PM 62.6 °F 60.8 °F 94% 29.81 in 10.0 mi Calm Calm - N/A   Clear
10:35 PM 62.6 °F 60.8 °F 94% 29.81 in 10.0 mi Calm Calm - N/A   Clear
10:55 PM 62.6 °F 59.0 °F 88% 29.81 in 10.0 mi West 4.6 mph - N/A   Clear
11:15 PM 60.8 °F 59.0 °F 94% 29.82 in 10.0 mi West 3.5 mph - N/A   Clear
11:35 PM 60.8 °F 59.0 °F 94% 29.82 in 10.0 mi WNW 5.8 mph - N/A   Clear
11:55 PM 60.8 °F 59.0 °F 94% 29.82 in 10.0 mi West 5.8 mph - N/A   Clear